Temp
77 78 80 77 80 60 69 71 63 68 78 72 64 61 62 62 59 57 67 65 70 77 78 82 84 82 83 85 86 87 87 88 86 85 86 87 87 87 87 86 86 85 87 86 86 86 87 87 86 85 84 84 84 84 83 82 82 83 82 82 82 82 82
77 83 81 79 80 80 71 63 70 78 80 77 66 57 59 58 54 58 63 62 65 66 64 79 82 81 83 83 84 87 86 87 86 86 86 86 87 87 87 87 87 87 87 87 88 88 88 88 88 86 84 85 85 85 85 83 83 82 83 83 83 83 82
75 78 80 75 80 82 75 72 82 68 58 57 63 61 51 52 52 56 60 64 65 68 68 76 75 78 81 82 83 85 85 86 86 87 87 87 88 88 87 87 86 87 87 87 87 89 90 89 87 87 86 87 87 86 86 87 84 85 85 86 85 83 83
74 75 75 62 68 76 77 80 74 80 73 65 57 61 62 61 55 54 57 59 60 71 74 78 79 79 81 84 83 83 86 87 87 88 89 87 86 86 87 88 88 88 89 90 90 90 90 90 89 89 90 90 89 88 86 87 87 86 85 84 84 83 84
74 64 70 68 70 66 68 70 69 70 71 74 73 68 65 60 57 56 56 56 65 72 80 81 81 83 83 84 83 82 84 87 90 89 89 88 87 86 87 88 89 89 89 91 92 91 91 92 91 91 92 90 90 90 89 88 86 86 86 86 85 83 84
65 69 75 77 76 76 72 70 68 70 67 62 58 56 69 67 61 53 56 55 67 77 78 82 83 85 87 86 84 84 86 88 87 88 90 89 88 87 88 90 91 91 90 91 92 92 91 92 92 92 92 92 91 90 91 90 90 89 89 87 85 84 84
67 72 76 81 82 80 78 76 72 75 74 71 63 53 59 65 67 68 65 58 63 80 78 81 85 87 89 89 87 86 87 88 89 89 92 91 89 89 90 90 92 92 91 90 90 89 88 89 90 91 91 92 91 91 91 91 90 90 91 90 88 84 84
71 74 76 77 76 75 74 76 78 75 71 72 69 67 67 63 64 60 62 56 65 77 76 81 85 84 87 86 86 85 89 89 89 88 89 88 87 87 90 91 92 91 91 89 88 87 86 86 87 89 90 90 91 92 92 92 91 91 91 91 90 86 85
60 66 72 73 73 73 71 72 75 76 77 76 75 72 65 63 65 66 61 54 65 76 73 76 77 80 83 86 87 85 84 86 88 88 87 87 85 86 87 87 88 88 90 87 85 85 84 85 88 88 89 89 91 91 92 92 92 93 92 91 91 88 87
46 46 49 55 61 66 68 70 73 74 74 72 69 63 61 56 63 65 62 63 70 77 74 77 78 79 78 83 85 87 85 83 86 87 86 83 83 83 84 85 86 86 85 85 84 84 84 86 88 86 87 90 91 91 91 93 93 92 92 93 91 89 89
54 53 51 56 58 61 62 65 66 70 74 76 73 70 62 59 61 62 64 67 70 73 78 79 82 80 81 84 86 85 84 84 83 80 81 83 82 82 85 84 85 84 83 83 83 83 86 89 88 89 89 90 91 88 89 92 93 92 91 91 89 90 89
53 57 56 61 59 55 59 60 63 66 68 72 70 65 62 66 63 57 66 68 67 71 76 78 80 82 80 81 81 83 84 83 83 83 79 79 82 83 82 83 82 82 82 82 83 83 85 87 88 89 90 91 90 89 89 91 93 93 92 90 88 88 87
56 58 59 61 59 59 59 61 62 63 65 65 65 67 69 68 64 61 67 66 65 71 78 82 82 81 82 84 86 87 85 84 81 78 81 84 86 85 84 82 81 82 83 82 82 84 85 87 87 88 89 90 89 89 90 90 93 92 90 89 87 88 86
56 58 60 60 58 59 59 60 61 63 64 64 65 66 71 71 67 70 71 67 69 76 80 83 86 85 87 87 82 81 82 86 81 82 81 85 86 86 85 84 84 82 82 83 82 83 83 85 85 88 87 87 89 89 90 91 90 92 90 88 86 87 86
53 58 59 60 59 58 57 60 62 63 65 65 66 67 68 70 69 72 73 69 67 78 80 83 86 83 81 79 81 85 84 83 85 84 87 88 87 87 85 84 83 83 83 84 83 83 83 83 85 86 86 87 89 92 92 92 90 92 92 87 87 87 86
51 57 56 57 59 59 59 60 62 64 64 62 66 64 69 67 65 67 69 65 67 75 79 80 79 77 77 79 81 83 84 88 84 83 86 86 85 86 86 84 83 82 83 83 83 83 86 86 86 86 85 88 90 91 92 92 93 93 92 90 88 85 86
48 55 56 55 56 58 56 59 65 67 68 69 71 72 73 73 74 68 64 67 76 78 79 79 80 83 82 82 83 82 83 81 83 83 84 85 86 86 82 81 80 83 86 86 84 86 88 88 87 89 88 89 87 89 89 91 92 93 92 90 86 85 86
48 53 55 56 53 45 51 62 62 62 63 66 66 68 71 74 75 73 77 77 79 79 79 78 79 82 82 84 85 85 83 83 81 82 83 85 87 85 83 82 82 83 83 85 88 88 87 89 92 92 91 90 89 91 92 91 91 90 88 89 87 87 85
46 52 53 49 42 48 61 65 67 65 65 63 62 64 69 74 77 77 76 78 78 79 80 80 81 82 85 84 81 81 80 78 81 81 83 80 79 79 79 77 81 80 80 81 83 85 89 91 91 91 90 91 91 91 91 90 89 86 87 87 87 86 85
52 48 48 38 45 57 63 66 64 66 65 64 64 67 69 67 66 68 72 77 80 80 79 81 82 81 79 78 74 74 76 76 78 79 81 81 80 79 80 78 76 76 79 81 84 85 88 90 92 92 92 93 93 93 93 91 90 89 87 86 87 87 85
43 47 48 47 56 56 61 61 60 62 59 59 60 58 64 65 64 63 63 66 72 76 79 80 80 77 78 77 78 78 77 75 75 76 77 77 77 77 77 78 78 77 77 78 81 83 86 90 91 92 94 94 93 93 92 91 88 90 88 86 86 85 85
51 47 45 47 47 43 53 59 64 65 65 64 62 60 60 63 64 64 63 63 66 68 71 74 74 74 75 73 78 81 79 76 75 76 76 77 77 77 77 77 77 78 79 80 81 83 87 87 91 92 93 93 91 89 89 90 89 89 88 86 85 85 85
49 46 43 43 42 49 59 59 62 65 65 65 64 59 58 61 62 64 64 63 64 66 67 69 71 72 71 74 80 80 76 76 76 75 76 77 77 77 77 76 77 78 78 78 81 84 85 87 89 90 92 92 91 87 87 91 90 87 86 85 85 85 85
46 47 44 43 50 50 58 62 64 66 67 64 62 52 57 58 63 64 64 62 62 64 66 68 68 70 71 76 82 78 76 75 74 72 73 74 75 77 78 79 77 77 77 80 81 85 86 86 89 88 91 89 87 86 87 90 89 87 86 86 86 87 87
44 44 46 51 53 60 64 63 66 66 65 63 54 50 58 61 62 64 63 63 63 63 64 67 66 72 69 69 70 74 74 73 72 72 73 75 75 75 77 76 75 78 79 79 79 80 78 79 85 89 90 88 85 85 86 86 86 89 89 88 87 86 86
42 45 43 46 54 63 67 66 67 68 63 52 54 61 60 62 63 65 64 62 63 63 63 65 68 70 70 71 72 71 72 70 70 71 72 75 77 79 76 73 75 78 78 76 78 79 78 80 84 87 86 84 84 84 84 85 86 90 88 87 86 86 85
46 45 42 42 35 56 68 65 64 66 57 60 62 62 65 65 65 64 64 63 62 61 62 68 68 68 68 67 67 67 68 70 69 70 71 71 72 71 71 75 77 77 76 74 74 75 78 79 80 83 86 83 83 83 83 84 87 88 87 87 86 85 84
39 40 37 40 53 57 64 67 60 64 66 67 65 63 63 65 65 63 61 63 61 62 61 65 67 65 64 64 66 66 67 68 70 71 70 70 70 71 71 72 75 77 75 74 73 73 74 75 76 78 82 82 81 82 80 79 84 86 86 86 85 84 84
42 43 48 56 57 59 63 63 67 68 67 66 65 64 63 62 63 62 61 60 62 62 62 63 64 63 64 63 65 65 66 67 68 68 68 68 68 69 69 70 71 73 73 72 72 72 73 73 73 74 77 79 79 77 76 78 81 84 85 85 84 84 85
51 54 54 56 58 59 62 67 66 67 66 66 66 65 64 63 62 61 59 60 60 62 63 62 61 62 64 64 64 65 65 65 66 68 69 69 70 70 71 70 70 71 73 73 72 70 70 72 72 72 73 73 71 71 75 77 79 81 83 83 83 83 84
42 37 56 57 58 61 63 63 65 65 68 65 65 63 63 63 63 62 62 62 62 63 63 62 61 61 63 63 64 64 65 65 65 67 67 67 68 69 69 70 71 71 71 70 69 69 69 70 72 72 72 73 73 74 74 77 79 80 82 82 82 83 83
40 42 51 53 55 54 56 57 61 63 63 63 63 64 64 63 63 62 63 64 63 64 63 62 62 62 63 62 62 63 64 65 66 66 66 67 68 70 70 71 71 70 70 69 69 69 68 69 70 71 72 73 74 75 76 77 79 80 80 80 82 82 82
44 49 51 53 55 55 56 59 60 64 65 63 63 64 63 63 62 63 65 65 64 63 62 63 64 63 62 62 63 64 64 64 65 65 66 67 68 69 70 71 71 70 70 70 69 69 68 70 71 72 73 74 75 75 76 77 78 78 77 77 79 79 79
38 41 49 54 47 48 54 57 61 63 65 64 63 62 60 59 59 61 64 65 65 65 63 63 63 62 62 63 63 64 64 64 65 65 66 66 67 67 69 70 70 70 71 70 69 69 69 71 72 73 73 74 74 75 75 76 77 76 75 75 74 73 74
40 50 53 54 51 48 50 54 59 63 65 64 63 61 58 58 59 61 62 62 63 63 63 64 62 60 61 62 64 64 65 64 66 66 65 65 65 66 68 68 68 68 68 70 70 70 70 71 72 72 72 73 73 74 74 75 75 74 74 71 71 71 71
49 52 51 52 50 48 52 56 59 61 64 64 62 61 60 59 59 60 61 61 61 61 63 63 64 62 62 62 63 63 64 66 67 67 67 67 66 67 68 67 67 67 67 67 67 68 70 71 71 72 72 73 74 75 75 75 75 74 74 72 71 71 72
46 53 53 53 53 54 56 57 58 61 65 64 62 60 60 59 59 60 59 60 61 62 61 62 63 63 62 62 63 64 65 66 67 66 67 67 68 68 68 68 67 66 67 68 68 69 69 69 69 70 71 73 74 75 75 75 75 74 74 73 72 72 73
MSLP
1003.19 1003.31 1003.11 1004.27 1003.95 1010.11 1007.39 1007.67 1009.51 1007.59 1005.55 1007.67 1010.07 1011.11 1010.91 1010.99 1011.83 1011.27 1008.51 1008.31 1006.63 1004.27 1003.43 1002.39 1001.87 1002.47 1002.23 1001.59 1001.55 1001.43 1001.31 1000.99 1001.27 1001.83 1001.83 1001.83 1001.75 1001.87 1002.19 1002.39 1002.47 1002.71 1003.03 1003.43 1003.63 1003.99 1004.35 1004.79 1005.27 1005.59 1005.75 1005.91 1006.35 1006.83 1007.35 1007.95 1008.31 1008.67 1009.03 1009.35 1009.71 1010.03 1010.31
1002.75 1001.39 1002.15 1003.27 1003.19 1003.51 1006.83 1009.11 1006.87 1005.35 1004.83 1006.11 1009.19 1012.03 1011.47 1011.83 1012.51 1010.27 1009.27 1008.91 1008.07 1007.95 1007.71 1002.39 1002.11 1002.51 1002.15 1002.07 1001.75 1001.23 1000.99 1000.91 1001.47 1001.27 1001.23 1001.11 1001.07 1000.99 1000.87 1000.95 1001.27 1001.83 1002.35 1002.67 1002.87 1003.11 1003.39 1003.71 1004.03 1004.47 1004.83 1005.03 1005.59 1006.07 1006.51 1007.19 1007.75 1008.31 1008.39 1008.75 1009.19 1009.51 1009.95
1002.79 1002.31 1002.75 1004.55 1003.35 1002.55 1004.63 1005.43 1003.11 1007.27 1010.99 1011.63 1009.31 1010.75 1013.59 1013.23 1012.63 1010.91 1009.03 1008.39 1007.43 1006.47 1005.55 1003.55 1003.83 1003.23 1002.43 1001.83 1001.47 1001.27 1001.31 1000.99 1000.87 1000.59 1000.51 1000.39 1000.39 1000.75 1001.19 1001.31 1001.51 1001.67 1001.91 1002.07 1002.27 1002.39 1002.43 1002.75 1003.11 1003.35 1003.71 1004.43 1004.95 1005.51 1005.83 1006.27 1006.83 1006.99 1007.43 1007.95 1008.47 1008.95 1009.27
1002.91 1003.19 1003.43 1007.11 1005.95 1004.11 1003.83 1003.23 1004.95 1003.67 1005.79 1007.55 1010.67 1008.91 1008.71 1009.23 1010.95 1011.67 1009.47 1009.55 1007.83 1004.15 1003.63 1002.71 1002.59 1002.39 1001.67 1001.11 1001.43 1001.43 1000.55 1000.07 999.95 999.79 999.63 999.95 1000.39 1000.39 1000.31 1000.47 1000.55 1000.71 1000.75 1000.95 1001.23 1001.67 1002.07 1002.31 1002.71 1002.95 1003.43 1003.99 1004.55 1004.79 1005.35 1005.79 1006.03 1006.55 1007.15 1007.63 1007.95 1008.47 1008.63
1002.87 1005.59 1003.83 1004.63 1004.43 1005.91 1005.99 1005.75 1005.95 1006.23 1005.79 1004.75 1005.51 1007.23 1007.71 1009.23 1009.95 1010.27 1009.71 1009.47 1005.75 1003.23 1001.07 1001.27 1001.31 1000.83 1000.87 1000.83 1000.91 1000.71 1000.35 999.55 999.07 998.95 998.95 999.03 999.35 999.63 999.63 999.59 999.71 999.83 1000.03 1000.19 1000.47 1000.75 1001.11 1001.43 1001.75 1002.23 1002.83 1003.39 1003.63 1004.07 1004.67 1005.03 1005.71 1006.07 1006.51 1006.71 1007.15 1007.59 1007.99
1004.63 1003.23 1002.27 1001.79 1002.23 1002.51 1003.47 1004.39 1005.27 1004.95 1006.23 1008.27 1009.67 1009.83 1006.71 1006.83 1008.59 1009.67 1009.87 1008.67 1004.79 1001.59 1000.95 1000.47 1000.27 999.71 999.59 999.55 999.91 999.99 999.51 999.19 999.03 998.71 998.47 998.43 998.83 998.87 998.87 998.83 998.87 999.11 999.39 999.59 999.91 1000.43 1000.87 1001.39 1001.75 1002.15 1002.43 1002.79 1003.23 1003.71 1003.83 1004.27 1004.83 1005.31 1005.71 1006.15 1006.51 1006.91 1007.35
1003.63 1002.59 1001.59 1000.31 1000.19 1000.71 1001.31 1002.15 1003.67 1002.91 1003.63 1004.71 1007.11 1009.55 1007.99 1007.11 1006.35 1006.23 1006.83 1008.55 1005.03 1000.11 1000.03 1000.23 999.55 999.31 998.95 998.63 999.11 999.55 999.03 998.75 998.43 998.31 997.91 997.91 998.15 998.39 998.39 998.55 998.67 998.91 999.23 999.59 999.95 1000.43 1000.75 1000.95 1001.19 1001.43 1001.83 1002.11 1002.43 1002.75 1003.11 1003.55 1004.11 1004.39 1004.51 1004.95 1005.47 1006.03 1006.59
1002.51 1001.83 1001.35 1001.31 1001.43 1001.99 1002.67 1001.99 1001.39 1002.47 1003.79 1003.47 1004.55 1004.99 1005.15 1006.83 1006.87 1008.47 1007.99 1008.87 1004.79 1001.27 999.95 999.11 999.15 999.07 998.75 998.75 999.03 999.23 998.63 998.23 998.19 998.23 998.19 998.15 998.31 998.35 998.43 998.35 998.47 998.67 998.95 999.39 999.95 1000.43 1000.59 1000.79 1001.07 1001.27 1001.39 1001.59 1001.79 1002.11 1002.43 1002.79 1003.27 1003.39 1003.83 1004.31 1004.87 1005.47 1006.03
1005.79 1004.27 1002.43 1002.15 1002.19 1002.39 1002.91 1002.79 1002.07 1001.91 1002.03 1002.15 1002.31 1003.55 1005.43 1006.35 1005.51 1005.79 1007.39 1008.35 1005.03 1001.19 1000.55 1000.59 1000.07 1000.23 999.91 999.19 998.71 999.11 999.39 998.59 998.15 998.11 998.15 998.11 998.23 998.51 998.59 998.59 998.51 998.67 998.87 999.23 999.47 999.51 999.79 1000.11 1000.31 1000.59 1000.87 1001.11 1001.35 1001.63 1001.83 1002.23 1002.35 1002.55 1003.15 1003.55 1004.15 1004.63 1005.23
1008.31 1008.31 1007.43 1005.51 1004.23 1003.71 1003.43 1002.95 1002.23 1002.07 1002.55 1002.99 1003.99 1005.87 1006.59 1007.55 1004.83 1004.83 1005.67 1004.91 1002.79 1000.91 1001.03 1000.87 1000.59 1000.39 1000.07 999.31 998.83 998.47 998.63 998.79 998.43 998.07 998.23 998.55 998.51 998.43 998.47 998.55 998.63 998.63 998.43 998.55 998.91 999.11 999.27 999.51 999.67 999.99 1000.27 1000.47 1000.71 1000.99 1001.19 1001.15 1001.55 1002.07 1002.55 1002.87 1003.35 1003.95 1004.51
1005.39 1006.43 1007.31 1006.63 1006.15 1005.35 1004.99 1003.87 1003.87 1003.11 1002.11 1001.91 1002.51 1003.51 1005.67 1006.47 1005.63 1005.43 1003.39 1003.43 1002.99 1002.15 1000.99 1000.39 999.99 1000.19 1000.11 998.87 998.35 998.59 998.67 998.47 998.47 998.71 998.59 998.35 998.35 998.35 998.39 998.47 998.39 998.39 998.67 998.59 998.35 998.51 998.67 998.75 998.95 999.23 999.55 999.83 1000.07 1000.43 1000.67 1000.71 1000.95 1001.51 1001.91 1002.35 1002.83 1003.35 1003.79
1007.11 1006.35 1006.35 1005.55 1006.03 1006.87 1005.87 1005.63 1004.59 1003.91 1003.59 1002.55 1002.95 1003.87 1004.51 1003.31 1005.35 1006.07 1002.71 1002.79 1003.79 1002.27 1001.23 1000.67 999.95 999.43 999.27 999.39 999.07 998.63 997.87 997.79 998.39 998.43 998.59 998.63 998.35 998.03 998.15 998.35 998.47 998.39 998.07 998.03 998.15 998.23 998.35 998.43 998.43 998.71 998.83 999.03 999.35 999.75 1000.11 1000.23 1000.55 1001.03 1001.39 1001.87 1002.39 1002.79 1003.27
1006.75 1006.15 1005.75 1005.51 1005.87 1005.95 1005.75 1005.35 1005.07 1004.71 1004.11 1004.23 1003.91 1002.83 1002.87 1002.51 1003.83 1003.99 1002.55 1002.59 1003.47 1001.91 1000.79 999.99 999.51 998.99 999.31 998.87 998.27 997.75 998.07 998.23 998.47 998.59 998.23 997.87 997.71 997.75 998.03 998.03 998.07 998.15 998.15 997.95 997.91 998.03 998.11 998.19 998.47 998.51 998.63 998.75 998.99 999.27 999.47 999.83 1000.15 1000.43 1000.63 1001.23 1001.79 1002.23 1002.75
1006.67 1006.03 1005.51 1005.47 1005.87 1005.75 1005.79 1005.51 1005.03 1004.51 1004.35 1004.03 1003.99 1003.63 1002.07 1002.03 1002.23 1001.71 1001.35 1002.27 1002.03 1000.67 1000.07 999.47 998.71 998.11 997.99 997.71 997.99 998.47 998.35 997.91 998.19 998.11 998.03 997.99 997.71 997.55 997.51 997.39 997.43 997.47 997.39 997.27 997.39 997.51 997.79 997.91 998.07 998.23 998.35 998.47 998.59 998.79 999.03 999.19 999.55 999.63 1000.23 1000.75 1001.19 1001.71 1002.15
1006.75 1005.87 1005.43 1005.39 1005.63 1005.87 1005.91 1004.99 1004.51 1004.11 1003.71 1003.55 1003.23 1003.11 1002.63 1002.23 1002.27 1001.71 1001.43 1002.03 1002.55 999.83 998.91 998.71 997.87 997.99 998.39 998.79 998.91 998.43 998.03 997.75 997.95 998.07 997.47 996.91 996.99 996.95 996.95 996.91 997.11 997.23 997.23 997.11 997.23 997.43 997.39 997.39 997.35 997.47 997.55 997.63 997.79 997.95 998.19 998.51 998.87 998.99 999.39 1000.03 1000.59 1001.15 1001.27
1006.95 1005.79 1006.07 1005.79 1005.39 1005.19 1004.95 1004.39 1003.63 1003.35 1003.35 1003.67 1002.63 1003.19 1001.99 1002.79 1003.11 1002.79 1002.59 1002.99 1002.55 1000.55 999.51 999.15 999.07 999.55 999.67 999.15 998.43 997.95 997.35 997.15 997.35 997.35 996.83 996.55 996.23 996.39 996.87 997.03 997.11 997.19 997.11 997.07 997.03 996.95 996.79 996.79 996.91 996.99 997.11 997.23 997.55 997.71 997.63 997.83 997.83 998.23 998.87 999.39 999.99 1000.39 1000.39
1007.55 1006.07 1006.07 1006.27 1005.79 1004.79 1004.75 1003.51 1002.19 1001.75 1001.39 1001.19 1001.03 1000.67 1000.51 1000.71 1000.87 1002.31 1003.03 1002.23 1000.23 999.35 998.87 999.43 998.99 998.55 998.43 998.43 997.99 997.59 997.03 997.07 997.23 997.03 996.67 996.31 996.11 995.99 996.67 996.99 997.03 996.87 996.59 996.39 996.39 996.19 996.07 996.15 996.23 996.07 996.23 996.87 997.15 996.91 997.03 996.87 997.27 997.95 998.39 998.71 999.23 999.75 1000.15
1007.71 1006.63 1006.39 1006.15 1006.35 1007.27 1004.83 1002.67 1002.87 1002.87 1002.63 1001.87 1001.79 1001.07 1000.63 1000.11 1000.15 1000.39 999.67 999.43 998.59 998.47 998.91 999.31 998.91 998.31 997.71 997.11 996.31 996.07 996.43 996.71 997.07 996.95 996.63 996.15 995.91 996.11 996.63 996.67 996.59 996.35 996.23 995.99 995.55 995.43 995.43 995.23 995.07 995.19 995.67 996.07 996.11 996.19 996.55 997.11 997.63 997.75 998.23 998.47 998.75 999.23 999.75
1008.35 1006.99 1006.71 1007.19 1007.91 1005.15 1002.51 1002.19 1001.75 1002.15 1002.11 1002.67 1002.95 1002.11 1000.91 999.71 999.07 999.19 999.43 998.99 998.79 998.27 998.11 997.95 997.51 997.03 996.19 996.19 996.95 996.87 996.99 997.19 997.03 996.79 996.55 996.63 996.63 996.67 996.83 996.91 996.43 996.23 996.15 995.91 995.59 995.35 994.95 994.79 994.99 995.27 995.47 995.27 995.51 996.07 996.35 996.75 996.91 997.47 997.83 998.23 998.51 998.95 999.55
1007.39 1007.99 1007.59 1009.11 1005.51 1003.67 1002.27 1001.67 1002.15 1001.83 1002.07 1002.31 1002.15 1001.07 1000.59 1001.27 1001.55 1000.91 999.71 998.79 998.03 997.75 997.91 997.55 996.83 996.87 997.55 997.55 998.03 998.07 997.63 997.55 997.43 997.23 996.91 996.63 996.79 996.83 996.47 996.59 996.51 996.43 996.07 995.71 995.31 994.95 994.47 994.55 994.51 994.47 994.55 994.59 995.23 995.59 995.75 996.43 996.87 997.23 997.67 998.11 998.47 998.95 999.43
1008.31 1007.19 1006.67 1005.79 1003.67 1004.07 1002.03 1002.35 1002.79 1002.83 1003.35 1003.51 1003.19 1003.51 1001.75 1001.59 1002.07 1002.11 1002.07 1001.11 999.67 998.63 998.07 997.91 997.59 997.83 997.91 998.19 997.59 997.27 997.35 997.47 997.31 997.23 996.95 996.79 996.71 996.59 996.39 996.15 996.03 995.83 995.63 995.55 995.11 994.67 994.47 994.15 994.07 994.03 993.99 994.31 994.79 995.23 995.71 995.91 996.35 996.75 997.27 997.95 998.27 998.47 998.91
1006.79 1007.07 1007.27 1006.11 1005.99 1006.51 1003.39 1002.95 1002.19 1002.11 1002.35 1002.47 1002.79 1003.27 1002.67 1001.87 1002.03 1001.99 1002.03 1001.91 1001.03 1000.51 999.67 998.95 998.83 998.75 999.03 999.27 997.63 996.39 996.75 997.03 997.19 996.95 996.79 996.55 996.39 996.19 996.03 995.83 995.63 995.43 995.15 994.91 994.59 994.43 994.15 994.03 993.67 993.59 993.79 994.15 994.71 995.19 995.47 995.63 996.11 996.47 996.83 997.27 997.43 997.87 998.39
1006.79 1006.99 1007.03 1006.15 1006.27 1004.35 1002.19 1002.71 1002.31 1001.91 1002.15 1002.27 1002.35 1003.35 1002.43 1001.99 1002.19 1001.83 1001.91 1001.75 1001.31 1000.99 1000.67 999.87 999.51 999.31 999.79 998.55 996.71 995.99 996.63 996.91 996.87 996.99 996.71 996.47 996.23 996.03 995.87 995.75 995.59 995.23 994.95 994.75 994.39 994.07 993.95 993.95 993.59 993.51 993.67 993.95 994.43 994.99 995.23 995.31 995.67 996.27 996.51 996.55 996.79 997.23 997.59
1007.31 1006.39 1006.43 1005.79 1004.31 1004.19 1002.67 1002.27 1001.95 1001.71 1001.59 1002.19 1002.51 1004.11 1002.03 1002.75 1001.95 1001.79 1001.63 1001.79 1001.63 1001.15 1000.71 1000.31 1000.07 999.55 999.31 997.83 996.11 996.23 996.51 996.79 996.95 997.19 997.15 996.83 996.51 995.99 995.59 995.35 995.27 995.07 994.63 994.23 994.23 994.03 994.03 993.91 993.43 993.51 993.63 993.99 994.35 994.75 995.07 995.11 995.55 995.87 995.67 995.55 995.87 996.31 996.71
1007.59 1007.35 1005.95 1004.59 1003.27 1002.11 1001.63 1002.03 1001.59 1001.55 1001.83 1002.31 1003.67 1003.23 1002.15 1002.23 1002.07 1001.59 1001.51 1001.39 1001.35 1001.07 1000.87 1000.31 1000.51 998.55 998.83 998.59 998.19 997.39 997.27 997.27 997.39 997.19 996.99 996.75 996.47 996.23 995.87 995.71 995.27 994.87 994.63 994.55 994.67 994.63 994.63 994.31 993.75 993.51 993.59 994.11 994.59 994.75 994.99 995.27 995.27 994.87 995.03 995.55 996.11 996.51 996.91
1007.79 1007.03 1006.75 1005.03 1003.11 1001.03 1000.75 1001.51 1001.43 1001.19 1002.23 1004.11 1002.51 1001.43 1002.11 1001.71 1001.63 1001.27 1001.23 1001.31 1001.07 1000.99 1000.79 1000.31 999.51 998.91 998.67 998.23 997.91 997.91 997.91 998.19 997.99 997.67 997.39 996.87 996.35 995.83 995.83 995.83 995.39 995.11 994.95 994.99 994.83 994.79 994.71 994.31 993.91 993.71 993.83 994.31 994.55 994.83 995.11 995.31 995.15 995.03 995.11 995.47 995.95 996.39 996.79
1007.23 1007.07 1007.35 1006.55 1007.59 1002.27 1000.59 1001.59 1001.79 1001.47 1002.99 1001.39 1001.43 1001.31 1000.99 1001.03 1001.07 1001.35 1001.11 1000.99 1000.91 1001.03 1000.79 999.63 999.39 999.15 999.07 998.87 998.67 998.51 998.31 998.19 998.39 998.27 997.95 997.71 997.35 997.11 996.59 995.95 995.51 995.35 995.43 995.51 995.55 995.39 994.91 994.67 994.47 994.15 994.07 994.63 994.87 995.07 995.47 995.39 994.95 994.87 995.03 995.27 995.63 995.95 996.31
1007.39 1007.39 1007.35 1006.15 1003.43 1002.95 1001.55 1000.79 1001.79 1001.03 1000.71 1000.43 1000.83 1001.23 1001.11 1000.91 1000.87 1001.19 1001.47 1000.95 1000.91 1000.71 1000.83 999.91 999.47 999.47 999.51 999.39 998.87 998.59 998.47 998.31 998.23 998.35 998.35 998.11 997.79 997.31 996.75 996.43 996.07 995.63 995.71 995.67 995.79 995.79 995.63 995.47 995.19 994.79 994.51 994.91 995.19 995.43 995.83 995.63 995.27 995.11 995.23 995.47 995.67 996.03 996.31
1007.71 1005.79 1004.87 1003.51 1003.27 1003.03 1002.27 1002.03 1000.87 1000.35 1000.63 1000.75 1000.87 1001.07 1001.07 1001.19 1001.19 1001.31 1001.43 1001.39 1000.95 1000.59 1000.47 1000.11 999.83 1000.03 999.87 999.79 999.19 998.71 998.59 998.51 998.59 998.75 998.83 998.75 998.43 997.87 997.51 997.19 996.79 996.39 996.19 996.11 996.07 996.19 996.11 995.99 995.71 995.47 995.19 995.19 995.47 995.99 996.07 995.71 995.55 995.39 995.43 995.55 995.83 996.07 996.23
1006.47 1005.59 1005.23 1004.67 1003.55 1002.99 1002.55 1001.59 1001.47 1001.11 1001.07 1000.83 1000.79 1000.87 1000.91 1001.03 1001.15 1001.35 1001.55 1001.43 1001.11 1000.67 1000.23 1000.43 1000.39 1000.15 999.99 999.91 999.55 998.87 998.55 998.63 998.75 998.71 998.71 998.59 998.27 997.91 997.59 997.43 997.19 996.87 996.47 996.31 996.27 996.43 996.43 996.19 996.03 995.87 995.83 995.87 996.31 996.51 996.07 995.83 995.59 995.47 995.43 995.63 995.95 996.07 996.15
1008.15 1007.51 1003.87 1003.71 1003.35 1002.67 1002.39 1002.35 1001.83 1001.63 1001.07 1001.07 1000.95 1001.15 1000.91 1000.99 1000.99 1001.15 1001.11 1001.07 1000.99 1000.71 1000.31 1000.31 1000.39 1000.23 999.91 1000.07 999.95 999.27 998.75 998.75 998.83 998.83 998.75 998.67 998.43 998.19 998.07 997.75 997.39 997.15 996.95 996.91 996.83 996.63 996.63 996.39 996.19 996.15 996.15 996.11 996.23 996.15 996.11 995.87 995.63 995.51 995.59 995.71 995.95 996.07 996.27
1008.23 1006.47 1005.11 1004.55 1004.39 1004.31 1003.99 1003.47 1002.75 1002.15 1001.91 1001.51 1001.23 1000.75 1000.59 1000.75 1000.91 1000.91 1000.91 1000.63 1000.79 1000.71 1000.67 1000.55 1000.35 1000.23 999.95 1000.07 1000.19 999.95 999.31 998.87 998.79 998.79 998.75 998.59 998.43 998.19 997.95 997.75 997.47 997.23 997.03 997.03 996.99 996.91 996.91 996.79 996.59 996.47 996.35 996.27 996.15 995.99 995.91 995.83 995.63 995.55 995.71 995.87 996.03 996.19 996.31
1007.23 1006.23 1005.51 1004.75 1004.43 1003.95 1003.47 1003.11 1002.99 1002.11 1001.63 1001.75 1001.19 1000.31 1000.47 1000.83 1000.99 1000.91 1000.55 1000.67 1000.75 1000.83 1000.99 1000.59 1000.27 1000.23 1000.19 1000.03 1000.07 1000.11 999.95 999.43 999.03 998.87 998.75 998.63 998.47 998.31 998.19 997.87 997.43 997.27 997.03 996.95 996.95 997.03 997.15 996.95 996.87 996.75 996.75 996.59 996.43 996.31 996.19 995.99 995.79 995.91 996.11 996.11 996.15 996.35 996.51
1008.03 1006.71 1004.67 1004.15 1004.83 1004.23 1003.39 1002.99 1002.55 1002.03 1001.63 1001.51 1000.91 1000.07 1000.47 1001.43 1001.51 1001.11 1000.75 1000.71 1000.71 1000.67 1000.75 1000.83 1000.75 1000.63 1000.31 999.99 999.87 999.95 1000.11 999.87 999.35 998.91 998.71 998.59 998.63 998.67 998.43 998.11 997.79 997.43 997.11 997.07 997.19 997.23 997.19 997.03 996.91 996.91 996.95 996.95 996.87 996.71 996.59 996.39 996.23 996.39 996.51 996.63 996.83 997.11 997.19
1006.11 1004.47 1004.51 1004.55 1005.03 1005.07 1004.35 1003.75 1002.83 1002.07 1001.59 1001.27 1000.67 999.99 1000.59 1001.27 1001.75 1001.31 1001.07 1000.99 1000.95 1000.83 1000.75 1000.83 1000.99 1001.03 1000.67 1000.19 999.67 999.75 999.99 999.99 999.47 999.03 998.83 998.83 998.75 998.75 998.59 998.51 998.31 998.07 997.75 997.47 997.39 997.39 997.31 997.15 997.11 997.07 997.19 997.19 997.15 997.07 996.95 996.83 996.75 996.83 996.87 997.15 997.39 997.55 997.67
1005.15 1004.75 1004.95 1004.99 1005.27 1005.03 1003.91 1003.39 1002.99 1002.35 1001.75 1001.47 1000.91 1000.43 1000.23 1000.75 1001.47 1001.39 1001.27 1001.43 1001.47 1001.27 1000.95 1000.87 1000.95 1000.99 1000.75 1000.35 999.95 999.95 1000.03 999.95 999.67 999.15 998.67 998.43 998.51 998.51 998.47 998.51 998.47 998.27 998.11 997.99 997.95 997.87 997.55 997.43 997.43 997.39 997.39 997.35 997.35 997.27 997.15 997.11 997.11 997.19 997.19 997.39 997.63 997.71 997.67
1005.59 1004.67 1004.71 1004.39 1004.39 1004.07 1003.51 1003.43 1002.91 1002.15 1001.43 1001.39 1001.11 1000.71 1000.51 1000.79 1001.07 1001.43 1001.43 1001.47 1001.43 1001.31 1001.07 1000.99 1000.95 1000.99 1000.87 1000.47 1000.11 1000.11 1000.23 1000.15 999.83 999.27 998.51 998.23 998.23 998.27 998.35 998.35 998.39 998.31 998.15 997.91 997.83 997.87 997.83 997.87 997.87 997.79 997.71 997.59 997.35 997.27 997.27 997.31 997.39 997.55 997.59 997.59 997.75 997.83 997.83
Wind_Speed
16 18 15 12 16 11 10 10 15 14 6 10 6 1 1 1 1 10 5 7 7 4 9 11 9 8 11 10 12 12 13 13 10 11 13 16 18 18 18 20 20 21 19 18 18 19 18 19 19 20 19 19 20 18 18 19 19 17 18 19 18 17 16
15 15 18 15 20 6 10 11 12 8 6 9 8 8 3 6 9 5 6 14 8 4 10 4 12 12 12 11 13 14 14 12 11 12 13 15 18 20 22 22 20 19 19 20 20 19 21 21 23 22 21 19 18 18 20 20 19 20 19 19 19 17 17
11 6 15 12 12 14 13 10 13 10 8 11 7 5 12 10 11 7 7 9 12 11 11 2 7 12 11 11 12 13 13 13 14 13 14 15 15 14 15 18 16 17 19 20 21 23 23 22 21 21 20 20 19 19 20 21 22 22 21 18 18 15 16
11 11 14 14 12 6 6 8 13 6 4 8 10 12 1 5 9 3 6 5 12 10 12 11 7 8 11 12 10 13 15 15 14 13 13 14 14 15 16 17 19 21 23 24 24 23 23 23 22 20 21 19 22 22 20 20 20 18 18 18 18 18 18
13 11 11 14 15 15 10 10 11 6 7 2 7 2 10 7 7 8 7 9 5 4 10 15 17 12 11 12 11 10 12 14 15 13 12 11 14 15 16 17 19 21 23 23 24 23 22 21 19 19 19 21 22 21 21 23 21 21 21 21 19 17 17
10 6 12 16 18 18 16 15 14 14 13 8 10 10 4 7 7 4 5 13 3 3 2 8 11 13 11 10 12 11 13 13 12 12 13 11 10 14 16 17 18 19 20 22 21 19 17 17 18 20 19 19 21 21 21 22 21 20 22 21 18 17 17
7 5 15 17 16 19 19 16 14 16 14 11 9 8 10 7 10 1 4 8 9 5 7 8 9 9 12 12 10 11 11 12 13 12 14 12 9 10 12 14 13 14 14 16 17 17 18 20 18 21 20 20 20 22 22 20 21 22 22 21 19 17 17
1 3 1 5 5 2 8 13 13 14 16 16 14 12 5 10 6 7 7 12 5 1 3 8 9 6 6 4 4 9 10 8 9 10 10 11 8 8 6 8 10 11 12 12 12 15 15 17 16 18 19 19 19 20 20 20 23 24 22 19 18 17 17
4 6 7 8 4 4 9 10 12 12 15 18 17 5 3 10 13 14 10 16 4 3 0 1 3 4 6 9 8 6 8 8 8 8 8 8 6 4 7 9 10 10 12 14 15 16 17 16 16 17 17 18 19 19 20 21 21 23 20 18 18 19 20
14 15 16 15 12 8 1 3 9 14 18 18 15 12 5 10 12 16 13 14 4 4 0 2 5 4 6 9 9 5 7 8 8 6 4 4 6 7 8 8 9 13 15 14 14 16 15 15 17 17 17 18 20 19 21 21 21 19 20 19 19 18 20
4 2 4 3 4 2 6 3 2 6 15 19 17 9 9 13 5 12 16 10 6 4 6 4 5 5 7 10 8 7 8 8 7 6 6 5 5 5 7 8 8 7 8 15 17 17 15 18 17 17 18 19 20 17 20 21 19 18 18 18 18 19 20
4 5 6 6 5 4 5 8 6 4 6 13 19 17 11 9 6 14 12 8 13 14 4 5 6 7 7 7 7 7 8 7 5 3 4 5 7 7 5 7 10 13 14 15 15 15 15 15 16 17 18 19 19 18 19 20 19 17 15 17 18 18 18
6 7 8 5 3 5 6 8 9 11 6 7 15 17 10 14 15 16 6 10 11 11 11 9 7 7 7 8 8 7 6 3 3 4 5 7 8 5 6 8 8 10 11 12 13 12 13 15 16 18 17 18 15 14 17 17 18 19 17 17 17 18 17
6 6 7 4 2 2 6 8 11 12 12 12 8 11 14 14 14 12 14 9 14 12 12 12 13 7 8 8 5 5 8 6 3 5 5 7 7 7 8 9 11 11 13 12 12 13 14 16 16 17 15 16 18 19 19 18 18 19 16 16 17 18 19
5 6 5 3 4 7 9 9 10 12 12 12 12 11 12 13 15 17 17 9 10 6 5 9 7 3 3 3 9 11 8 6 5 5 6 4 5 6 8 8 9 9 10 11 10 11 13 15 17 17 17 17 17 21 19 20 19 19 18 15 17 19 20
5 2 6 9 11 11 11 11 11 11 12 13 12 11 9 10 9 9 14 15 10 1 6 9 7 4 6 8 9 9 8 7 3 5 7 8 8 7 6 5 5 7 10 11 12 14 16 17 16 15 16 15 17 19 19 20 20 19 18 18 19 18 17
6 5 6 10 14 10 10 14 12 13 16 15 11 12 10 12 8 12 13 8 0 7 8 10 10 11 11 12 10 9 11 8 6 8 8 8 8 8 4 5 6 7 9 11 13 14 14 15 16 19 17 15 17 18 18 19 16 18 19 20 18 17 14
4 8 9 9 6 9 8 4 2 2 4 6 12 16 15 12 11 10 4 8 8 9 8 11 12 14 12 12 13 9 9 7 7 9 9 9 8 6 5 6 8 8 7 8 10 13 14 15 18 17 16 17 16 16 14 11 14 15 15 16 16 16 14
5 5 8 7 10 10 4 1 3 4 7 2 7 10 9 12 13 14 16 12 8 9 10 12 13 15 16 6 3 3 3 4 6 7 7 6 6 7 5 6 7 7 8 9 10 11 14 14 12 12 14 16 14 13 13 15 16 15 15 16 14 14 13
3 3 4 5 6 8 15 3 2 5 4 5 8 9 4 6 7 6 10 10 13 10 9 10 11 7 3 1 0 1 3 4 5 6 7 5 5 7 5 6 7 7 8 9 10 11 9 10 13 15 16 16 15 16 16 15 14 15 13 13 14 12 12
7 5 9 13 10 16 18 1 2 4 3 4 4 3 1 4 5 7 6 8 9 10 8 7 8 3 2 5 6 6 5 6 6 6 6 4 6 6 6 7 8 7 9 9 10 9 9 10 12 15 14 15 15 15 16 16 15 16 15 14 14 13 14
8 9 9 10 8 12 6 6 1 2 2 2 2 3 3 5 5 7 6 7 9 10 9 7 5 3 5 8 8 8 8 5 5 4 4 4 5 5 6 6 7 7 7 7 7 8 9 11 12 11 12 13 13 13 14 14 15 16 16 15 14 13 13
8 10 12 11 11 7 4 6 2 2 2 3 6 3 6 4 7 8 7 9 9 9 9 9 2 5 8 8 7 5 6 4 2 2 2 3 4 4 5 6 7 7 7 6 6 6 8 10 10 10 12 14 14 13 13 15 16 15 15 14 14 15 15
9 9 11 13 6 7 4 3 3 2 2 5 5 6 4 6 9 8 9 10 11 11 10 10 7 8 9 9 3 6 6 4 2 1 3 4 5 4 5 4 5 6 6 2 1 3 6 7 6 9 11 11 12 11 13 14 15 15 16 17 13 13 14
11 12 11 9 9 4 2 2 1 2 4 4 5 8 3 2 6 7 8 8 9 10 10 8 7 4 3 4 5 4 4 3 2 0 1 3 4 5 5 5 6 4 6 7 6 6 5 5 3 8 10 10 10 10 10 11 15 16 11 7 8 10 9
11 11 11 11 8 2 7 5 2 3 4 5 8 3 3 5 5 6 7 7 8 10 10 9 10 4 2 2 2 3 3 4 2 2 3 2 2 3 4 5 6 5 6 8 8 8 8 7 3 4 7 9 8 8 10 11 9 5 6 8 9 10 11
8 9 9 7 8 2 7 6 4 6 6 3 3 4 3 2 5 6 6 4 5 8 10 8 7 3 2 2 3 4 3 3 4 5 5 4 4 4 5 7 6 5 7 9 9 9 8 9 7 3 4 6 5 5 7 3 5 6 7 9 11 11 12
9 9 12 7 3 9 2 8 7 5 3 2 2 2 3 3 4 5 6 5 4 5 9 8 3 2 3 2 3 4 5 4 4 5 5 5 5 4 5 5 5 6 9 9 9 9 9 8 8 7 4 4 4 4 4 6 2 3 5 6 8 9 9
4 5 5 8 11 9 12 11 7 2 3 3 2 3 2 3 3 5 4 7 7 3 5 7 1 1 3 2 3 5 6 6 5 5 6 6 6 5 6 5 5 6 8 10 10 10 9 10 10 10 9 6 7 6 4 3 2 2 5 7 8 9 10
7 13 15 14 16 13 12 10 7 2 3 2 3 3 2 3 4 4 4 6 7 6 3 3 4 3 2 1 3 6 7 7 5 4 5 5 6 6 5 5 5 5 7 9 11 11 11 11 11 11 11 10 10 5 4 4 3 1 4 7 7 8 7
7 7 2 10 13 13 10 10 8 7 4 3 4 3 5 5 4 4 5 4 5 7 3 3 2 3 3 3 3 5 7 8 6 5 5 5 6 6 6 5 4 5 7 9 11 13 13 12 11 11 11 10 9 6 6 4 3 2 1 4 5 6 6
7 9 13 13 13 14 14 11 9 7 7 6 5 5 7 5 3 4 5 5 6 7 5 6 2 4 5 5 5 5 6 7 7 6 6 6 6 5 5 5 6 8 10 11 12 13 12 11 11 11 11 10 10 9 8 7 5 5 5 3 3 3 3
9 14 18 18 13 14 14 15 12 10 7 6 5 9 9 7 6 6 6 7 6 6 7 7 4 4 6 6 6 5 4 6 6 6 6 6 6 6 6 7 7 9 10 12 12 13 12 10 10 10 11 11 11 11 10 9 8 7 7 7 6 6 4
10 9 8 4 4 5 5 9 12 13 13 12 3 10 12 8 7 6 6 7 7 7 8 9 8 7 6 7 7 7 6 7 7 7 7 7 7 6 6 6 8 10 11 11 11 11 10 9 9 10 10 11 10 10 10 10 10 9 8 8 8 8 7
12 11 8 5 5 9 13 13 16 15 12 11 7 11 11 9 5 6 8 8 8 9 10 9 9 8 8 8 8 7 7 7 7 7 8 8 8 8 8 8 9 10 10 10 11 11 9 9 10 10 11 10 9 10 10 10 10 10 9 8 8 7 7
19 20 16 14 10 12 14 16 15 15 14 12 0 7 11 11 7 6 8 7 6 6 8 9 9 8 8 8 8 8 7 8 8 8 9 10 9 9 9 9 10 10 11 11 11 10 8 9 9 9 10 9 8 9 10 9 7 7 7 8 8 6 5
15 13 12 13 12 15 15 15 17 16 15 13 4 8 10 9 9 7 7 7 5 5 7 8 9 8 7 7 8 8 8 8 9 9 10 11 12 11 11 12 13 12 11 10 10 9 9 9 9 8 8 7 7 7 7 7 7 7 6 6 6 5 4
Wind_Direction
174 190 172 170 158 197 171 174 204 214 158 183 223 332 15 84 326 247 173 263 251 279 262 244 234 224 235 229 228 228 231 228 206 197 198 201 204 204 201 204 204 203 197 194 198 199 197 197 196 197 197 192 195 194 191 195 198 196 195 195 198 198 199
201 195 173 171 187 142 130 200 201 124 131 212 217 235 148 224 245 236 179 236 241 210 276 157 203 200 215 219 224 227 230 230 215 212 203 203 205 203 202 202 201 195 195 198 200 201 199 197 197 197 196 193 193 194 196 196 194 196 197 195 197 196 196
173 120 169 172 194 151 187 203 144 162 164 192 182 207 231 219 230 251 220 232 248 223 231 153 185 203 210 217 217 221 225 228 230 224 213 209 206 204 204 203 198 197 199 200 201 204 202 200 198 196 192 191 193 196 199 199 198 199 196 196 197 197 197
140 170 179 196 178 214 21 124 168 185 190 196 165 200 353 199 239 244 242 159 257 199 229 214 224 213 219 217 216 221 224 222 219 220 217 204 194 200 203 202 203 200 202 203 202 202 202 201 198 200 197 195 198 199 197 200 203 198 194 194 193 194 195
147 191 191 196 181 184 188 190 189 163 214 26 194 164 211 200 222 230 269 269 254 193 195 199 215 215 218 225 224 221 226 229 228 225 219 200 194 199 203 204 203 202 203 203 204 203 203 203 199 197 195 196 199 198 198 199 197 194 195 196 193 194 193
201 184 178 202 196 194 195 192 197 184 183 168 183 211 188 224 210 224 200 251 164 128 142 202 210 216 220 218 218 225 231 232 231 231 234 226 201 201 203 205 204 203 203 202 202 201 199 199 201 196 198 198 199 198 200 199 200 200 201 198 195 190 191
197 171 192 212 212 202 202 193 198 192 197 187 192 215 194 194 225 4 257 300 280 144 156 200 208 210 220 227 214 230 233 233 234 231 233 234 221 218 213 212 212 209 205 199 195 193 191 195 198 197 197 200 198 198 199 198 198 203 202 200 194 187 187
177 253 314 281 292 308 238 219 209 191 200 196 209 218 154 194 170 202 219 248 246 119 176 194 202 220 242 273 245 236 240 237 235 239 239 239 226 218 207 207 206 203 194 181 189 192 193 198 196 195 197 199 199 198 198 197 200 203 200 198 193 187 187
227 229 225 220 97 208 224 216 210 208 205 204 213 192 85 219 203 202 201 239 204 135 202 285 277 265 258 250 243 234 258 261 251 241 235 240 234 211 199 199 195 188 190 188 195 200 200 199 196 195 193 194 197 200 198 199 204 203 199 196 194 191 189
194 200 204 210 201 194 199 271 227 206 208 207 208 208 167 224 202 202 217 232 99 98 286 223 242 255 274 268 262 246 240 250 255 260 258 235 229 221 206 197 182 190 194 193 197 200 199 194 195 194 196 196 200 199 199 200 203 199 198 195 196 192 189
238 24 7 8 343 314 217 168 258 226 217 216 213 212 199 215 120 213 227 241 276 227 189 180 223 232 242 258 258 242 246 254 247 241 255 255 239 239 227 202 200 191 194 200 202 200 197 196 193 191 195 198 198 196 200 201 203 198 196 194 193 191 190
9 333 312 324 332 283 284 285 277 274 240 223 216 215 220 112 171 236 222 207 239 238 179 198 221 219 234 253 273 284 269 245 236 236 230 247 253 237 209 207 200 201 205 205 204 200 196 194 190 192 194 196 196 194 197 199 199 196 192 190 188 188 190
336 307 301 317 288 261 262 266 269 269 275 262 236 231 199 175 215 235 181 183 223 246 229 220 226 229 232 236 240 260 317 321 209 191 217 228 237 237 227 231 218 210 210 210 206 201 198 197 193 196 195 197 196 191 199 198 197 199 190 184 186 186 189
318 315 313 326 300 301 281 266 269 268 267 263 258 255 245 224 236 242 243 185 220 225 230 225 235 236 253 284 353 311 270 253 190 215 220 233 235 226 226 228 224 213 213 211 204 200 197 197 196 197 196 197 198 197 198 194 196 200 190 188 185 194 196
313 317 318 290 318 312 289 281 264 260 258 260 249 247 248 253 252 252 258 246 237 223 264 250 244 280 3 296 261 256 254 252 248 249 247 234 237 233 226 226 230 228 221 219 205 201 201 199 197 198 198 198 197 201 200 198 197 196 192 189 190 197 205
300 345 338 326 324 310 279 267 261 250 239 245 240 235 229 231 235 242 253 254 251 265 259 263 256 221 231 244 243 248 252 251 235 274 274 266 264 261 254 258 241 232 227 220 211 208 206 204 201 199 199 196 196 202 200 200 200 193 195 194 196 200 205
276 305 336 333 319 306 275 246 242 244 250 251 255 256 235 232 231 228 233 251 284 242 219 245 250 245 232 231 241 255 257 241 235 237 247 256 255 249 239 257 258 244 237 227 219 219 213 205 202 203 196 195 198 201 199 199 192 190 193 195 196 201 196
291 314 321 317 294 253 240 47 320 306 274 286 255 250 243 231 217 255 279 260 235 227 212 226 240 239 242 238 240 242 251 252 228 240 241 245 256 266 255 247 254 258 245 243 235 224 218 212 207 202 195 199 201 201 200 182 187 194 194 198 195 197 190
276 296 304 282 248 238 44 286 84 271 243 270 301 306 288 262 243 235 245 244 237 228 218 219 229 237 246 269 330 255 231 228 237 242 247 248 258 268 262 255 256 253 253 250 244 236 230 224 212 199 200 205 199 192 186 186 192 193 198 200 197 193 189
255 289 230 243 210 350 307 357 100 23 191 280 297 261 184 44 19 338 262 251 246 241 229 231 239 259 3 336 211 262 250 235 240 233 242 248 254 261 265 270 267 262 260 252 249 243 235 215 207 201 203 199 194 196 193 194 194 198 199 201 203 193 187
234 225 240 248 329 321 297 323 57 32 29 344 3 293 306 23 35 10 340 315 299 295 288 272 281 342 273 269 243 194 223 228 243 250 261 270 269 275 275 269 272 270 266 262 260 257 238 223 211 207 204 195 195 192 189 192 187 193 194 195 198 191 191
207 237 256 265 250 248 241 119 70 207 230 224 208 206 257 128 17 8 341 322 316 312 312 310 306 247 253 254 256 200 196 205 239 253 263 268 268 279 290 291 284 275 269 265 247 238 234 220 216 202 194 188 185 185 188 186 186 193 193 195 192 186 187
201 214 231 234 237 229 90 147 331 335 187 216 182 195 251 106 1 359 346 323 318 313 312 315 305 212 227 245 247 150 159 169 212 253 287 293 300 307 312 313 309 307 303 290 281 234 226 220 207 190 190 187 185 185 186 192 191 191 195 195 186 186 182
235 227 223 237 224 226 139 182 325 322 148 176 199 277 274 36 349 340 340 329 321 317 310 300 268 226 225 231 286 101 130 128 96 282 318 320 329 337 336 339 325 318 322 318 144 214 219 228 202 187 189 188 190 186 187 192 192 196 200 200 189 182 185
229 233 246 261 258 229 251 229 289 18 158 197 228 242 53 343 340 330 328 325 324 317 309 292 257 252 326 358 10 36 58 104 101 42 320 328 333 345 353 8 343 19 40 48 48 35 11 344 250 197 190 184 188 189 184 191 203 207 198 161 168 182 188
220 225 239 245 273 291 127 150 115 114 170 229 247 47 218 289 326 342 314 321 330 331 308 286 265 299 342 10 55 65 48 20 10 353 351 357 31 49 42 23 22 44 56 49 43 36 21 14 14 202 185 182 183 179 188 205 209 185 148 159 172 178 182
224 235 246 253 255 173 191 127 201 173 241 306 355 314 322 321 332 330 314 312 338 334 317 294 263 219 187 139 73 61 52 38 3 352 353 352 2 10 29 55 47 54 73 63 51 37 23 22 15 20 190 182 174 172 191 198 201 184 164 172 175 179 180
215 211 219 221 239 354 321 198 230 161 250 354 239 286 303 6 335 345 325 321 331 339 323 297 222 197 160 116 101 82 67 45 23 1 349 349 353 8 31 44 56 75 87 83 71 53 43 36 30 27 53 118 100 130 85 19 343 202 178 172 173 182 186
282 267 281 307 319 300 307 301 311 127 156 195 210 231 271 320 353 336 314 317 319 337 345 326 349 42 35 51 62 84 67 55 35 11 3 354 355 6 17 31 49 67 84 90 86 73 58 52 48 49 41 68 91 75 28 350 10 187 189 184 182 192 196
292 282 261 275 281 290 300 294 301 255 171 191 201 191 138 60 22 342 329 327 325 318 63 24 19 24 25 25 77 79 74 63 52 38 28 13 9 14 25 33 44 68 78 82 82 78 65 57 56 52 53 55 60 45 27 20 357 331 193 190 194 199 198
317 287 196 218 263 281 275 279 284 285 260 210 184 144 85 59 37 14 8 344 343 338 7 82 67 43 30 24 27 69 81 76 68 62 55 46 29 25 31 34 48 67 73 71 68 66 60 49 50 50 53 53 51 49 43 35 35 12 205 191 189 193 197
238 257 283 291 294 298 295 278 267 262 251 221 197 119 86 74 54 44 27 25 34 4 5 358 -0 55 47 37 28 49 77 88 83 71 60 56 53 46 39 47 59 69 71 70 67 66 64 57 52 46 44 42 39 36 35 32 38 60 78 94 160 164 168
281 286 280 275 282 276 268 265 263 266 244 212 177 100 83 60 46 30 55 50 49 39 11 354 10 53 50 34 8 7 28 63 72 69 71 62 52 44 44 46 53 62 66 67 66 66 66 65 62 60 56 49 41 36 34 33 34 49 60 70 83 83 83
267 250 263 14 280 284 296 276 263 251 244 251 198 100 81 51 39 27 37 46 43 42 34 20 12 20 31 37 21 14 11 21 41 52 51 49 43 33 26 33 42 54 60 65 67 67 66 62 61 58 56 53 47 42 37 34 40 51 57 61 62 61 59
268 260 267 301 320 300 281 282 286 265 264 260 227 114 111 97 56 46 42 33 25 33 32 28 22 15 18 17 21 28 13 11 29 45 48 46 42 37 31 37 46 53 57 63 69 70 69 66 59 56 56 53 53 51 49 45 43 44 48 60 64 66 65
268 274 281 281 278 269 277 282 288 282 270 274 319 101 112 113 107 81 73 45 31 29 38 33 26 17 19 9 14 23 7 10 17 35 44 47 41 35 34 33 35 43 48 51 52 56 61 62 61 60 64 64 63 57 49 45 47 57 64 70 70 68 69
267 280 280 273 264 268 272 280 284 274 258 267 222 134 128 126 114 99 86 77 43 45 55 41 27 16 14 17 22 22 8 8 14 29 47 50 45 40 34 31 29 31 36 42 46 48 49 50 55 56 58 54 51 50 42 41 46 59 67 75 81 79 71